Location: Marcé
(47.5801°N, 0.3280°W)
Time: 23:01:29
(UTC+01:00)

S-56A Canister/Altair - Pass Details

Date: 08 December 2021
Orbit: 633 x 2499 km, 38.9° (Epoch: 16 January)

Event Time Altitude Azimuth Distance (km) Brightness Sun altitude
Rises 23:56:24 0° 234° (SW) 5,680 - -62.7°
Reaches altitude 10° 00:00:47 10° 228° (SW) 4,422 - -63.0°
Maximum altitude 00:11:01 39° 166° (SSE) 2,113 - -63.7°
Drops below altitude 10° 00:18:05 10° 100° (E) 3,066 - -64.2°
Sets 00:20:35 0° 92° (E) 3,810 - -64.3°
